This demonstration page uses our WeatherBlox Daily Observations layout. Learn more.

Left ArrowRight Arrow

36.17497, -115.13722

Hourly Observations for September 8, 2017

Temp ( °F °C ) Dew Point ( °F °C ) Humidity (%) Winds ( mph kmh ) Pressure ( in mb ) Visibility ( mi km ) Precip ( " mm )
12:53 am 00:53 Clear 83 28.3 50 10 32 32 E 5 7 29.83 1010 10 16 0.00 0.00
1:53 am 01:53 Clear 81 27.2 51 10.6 35 35 E 7 11 29.83 1010 10 16 0.00 0.00
2:53 am 02:53 Clear 80 26.7 53 11.7 39 39 Calm 29.83 1010 10 16 0.00 0.00
3:53 am 03:53 Clear 79 26.1 54 12.2 42 42 Calm 29.83 1010 10 16 0.00 0.00
4:53 am 04:53 Clear 80 26.7 54 12.2 41 41 Calm 29.84 1010 10 16 0.00 0.00
5:53 am 05:53 Cloudy 78 25.6 60 15.6 54 54 SE 5 7 29.87 1011 10 16 0.00 0.03
6:53 am 06:53 Mostly Cloudy 77 25 60 15.6 56 56 ENE 7 11 29.92 1013 10 16 0.00 0.03
7:53 am 07:53 Mostly Cloudy 76 24.4 62 16.7 62 62 E 10 17 29.95 1014 10 16 0.00 0.00
8:53 am 08:53 Mostly Cloudy 75 23.9 61 16.1 62 62 E 16 26 29.97 1015 10 16 0.00 0.00
9:53 am 09:53 Partly Cloudy 78 25.6 59 15 52 52 E 8 13 29.99 1016 10 16 0.00 0.00
10:53 am 10:53 Mostly Sunny 81 27.2 57 13.9 44 44 E 12 19 29.99 1016 10 16 0.00 0.00
11:53 am 11:53 Sunny 82 27.8 57 13.9 42 42 ESE 15 24 29.98 1015 10 16 0.00 0.00
12:53 pm 12:53 Mostly Cloudy with Light Rain 77 25 63 17.2 62 62 ESE 16 26 30.01 1016 10 16 0.00 0.03
1:53 pm 13:53 Sunny 81 27.2 60 15.6 49 49 E 14 22 29.98 1015 10 16 0.00 0.03
2:53 pm 14:53 Mostly Sunny 83 28.3 56 13.3 40 40 NNE 5 7 29.95 1014 10 16 0.00 0.00
3:53 pm 15:53 Sunny 84 28.9 55 12.8 37 37 ESE 7 11 29.88 1012 10 16 0.00 0.00
4:53 pm 16:53 Sunny 82 27.8 59 15 46 46 ESE 15 24 29.90 1012 10 16 0.00 0.00
5:53 pm 17:53 Mostly Cloudy with Light Rain 81 27.2 60 15.6 49 49 SE 9 15 29.91 1013 10 16 0.00 0.03
6:53 pm 18:53 Mostly Cloudy with Light Rain 79 26.1 63 17.2 58 58 S 14 22 29.94 1014 10 16 0.00 0.03
7:53 pm 19:53 Cloudy with Light Rain 71 21.7 64 17.8 79 79 WSW 14 22 30.01 1016 9 14 0.00 0.03
8:53 pm 20:53 Cloudy with Light Rain 70 21.1 66 18.9 87 87 NNE 10 17 30.01 1016 10 16 0.00 0.00
9:53 pm 21:53 Mostly Cloudy 71 21.7 62 16.7 73 73 NNW 6 9 30.01 1016 10 16 0.00 0.00
10:53 pm 22:53 Clear 69 20.6 64 17.8 84 84 SE 5 7 30.02 1017 10 16 0.00 0.00
11:53 pm 23:53 Clear 70 21.1 65 18.3 84 84 S 5 7 30.03 1017 10 16 0.00 0.00

Powered by AerisWeather